Location: Alafon
(8.4500°N, 4.2333°E)
Time: 02:05:03
(UTC+00:00)

deb Explorer IX - Pass Details

Date: 24 July 2021
Orbit: 545 x 1092 km, 38.8° (Epoch: 16 September)

Event Time Altitude Azimuth Distance (km) Brightness Sun altitude
Rises 13:22:48 0° 246° (WSW) 2,963 ? 64.8°
Reaches altitude 10° 13:25:07 10° 253° (WSW) 2,126 ? 64.3°
Maximum altitude 13:29:48 41° 324° (NW) 1,087 ? 63.3°
Drops below altitude 10° 13:35:17 10° 33° (NNE) 2,477 ? 62.1°
Sets 13:38:10 0° 40° (NE) 3,512 ? 61.4°
